English version Home page |
Updated on November 5, 2020 |
|
軌道要素Epoch 2009 May 9.0 TT = JDT 2454960.5 T 2009 May 25.42217 TT MPC q 1.5775999 (2000.0) P Q n 0.15299193 Peri. 162.82196 +0.23794094 +0.96870533 a 3.4622389 Node 120.89231 -0.90052692 +0.24728448 e 0.5443411 Incl. 4.72377 -0.36391673 +0.02145634 P 6.44 From 2373 observations 1997 Nov. 8-2010 Dec. 2, mean residual 0".7. Nongravitational parameters A1 = -0.12, A2 = -0.1052.
|
星図
|
光度変化m1 = 5.3 + 5 logΔ + 21.0 log r [ ,-455] ( 〜2008年 2月25日) m1 = 25.5 + 5 logΔ - 20 log r [-455,-317] (2008年 2月25日〜2008年 7月12日) m1 = 5.3 + 5 logΔ + 21.0 log r [-317, ] (2008年 7月12日〜 ) ※ 灰色の曲線は、m1 = 5.3 + 5 logΔ + 21.0 log r の光度曲線です。
|
軌道要素はM.P.E.C. 2012-J16に掲載されたものです。
|